McKinney, TX

5:27 AM CST on December 08, 2019 (GMT -0600)
Collin County Regional

Weather History for KTKI - July, 2019

Change the Weather History Date:

Sunday, July 21, 2019

  Actual Average (KADS) Record (KADS)
Temperature  
Mean Temperature 85 °F -  
Max Temperature 97 °F 95 °F 107 °F (2018)
Min Temperature 75 °F 76 °F 73 °F (2007)
Cooling Degree Days 20    
Growing Degree Days 35 (Base 50)    
Moisture  
Dew Point 70 °F    
Average Humidity 61    
Maximum Humidity 87    
Minimum Humidity 41    
Precipitation  
Precipitation 0.00 in - - ()
Sea Level Pressure  
Sea Level Pressure 29.91 in    
Wind  
Wind Speed 8 mph (SSE)    
Max Wind Speed 13 mph    
Max Gust Speed -    
Visibility 10 miles    
Events      
Averages and records for this station are not official NWS values.
T = Trace of Precipitation, MM = Missing Value Source: NWS Daily Summary

Daily Weather History Graph

Daily Weather History Graph

Search for Another Location

Airport or City:

Astronomy

Jul. 21, 2019 Rise Set
Actual Time 6:31 AM CDT 8:33 PM CDT
Civil Twilight 6:04 AM CDT 9:01 PM CDT
Nautical Twilight 5:30 AM CDT 9:34 PM CDT
Astronomical Twilight 4:54 AM CDT 10:10 PM CDT
Moon 11:41 PM CDT (7/21) 10:42 AM CDT (7/21)
Length of Visible Light 14h 57m
Length of Day
14h 01m
Waning Gibbous, 80% of the Moon is Illuminated
Jul 21
Waning Gibbous
Jul 24
Last Quarter
Jul 31
New
Aug 7
First Quarter
Aug 15
Full

Hourly Weather History & Observations

Time (CDT) Temp. Heat Index Dew Point Humidity Pressure Visibility Wind Dir Wind Speed Gust Speed Precip Events Conditions
12:53 AM 81.0 °F 85.2 °F 72.0 °F 74% 29.87 in 10.0 mi South 5.8 mph - N/A   Clear
1:53 AM 81.0 °F 84.9 °F 71.1 °F 72% 29.88 in 10.0 mi SSE 9.2 mph - N/A   Clear
2:53 AM 80.1 °F 83.6 °F 71.1 °F 74% 29.88 in 10.0 mi South 9.2 mph - N/A   Clear
3:53 AM 78.1 °F - 71.1 °F 79% 29.89 in 10.0 mi SSE 8.1 mph - N/A   Clear
4:53 AM 77.0 °F - 71.1 °F 82% 29.90 in 10.0 mi SSE 8.1 mph - N/A   Clear
5:53 AM 75.9 °F - 71.1 °F 85% 29.93 in 10.0 mi SSE 4.6 mph - N/A   Clear
6:53 AM 75.0 °F - 71.1 °F 87% 29.94 in 10.0 mi SSE 8.1 mph - N/A   Clear
7:53 AM 79.0 °F - 72.0 °F 79% 29.95 in 10.0 mi South 9.2 mph - N/A   Clear
8:53 AM 82.9 °F 87.5 °F 71.1 °F 67% 29.96 in 10.0 mi South 11.5 mph - N/A   Clear
9:53 AM 86.0 °F 90.7 °F 70.0 °F 59% 29.96 in 10.0 mi South 9.2 mph - N/A   Clear
10:53 AM 89.1 °F 94.1 °F 70.0 °F 53% 29.95 in 10.0 mi South 8.1 mph - N/A   Clear
11:53 AM 91.0 °F 96.6 °F 70.0 °F 50% 29.94 in 10.0 mi SSE 10.4 mph - N/A   Clear
12:53 PM 91.0 °F 95.6 °F 69.1 °F 48% 29.94 in 10.0 mi Variable 4.6 mph - N/A   Clear
1:53 PM 93.9 °F 97.5 °F 66.9 °F 41% 29.92 in 10.0 mi SSW 12.7 mph - N/A   Clear
2:53 PM 95.0 °F 101.3 °F 70.0 °F 44% 29.91 in 10.0 mi SE 11.5 mph - N/A   Clear
3:53 PM 95.0 °F 100.7 °F 69.1 °F 43% 29.89 in 10.0 mi SE 12.7 mph - N/A   Clear
4:53 PM 95.0 °F 99.5 °F 68.0 °F 41% 29.88 in 10.0 mi SSE 11.5 mph - N/A   Clear
5:53 PM 93.9 °F 98.6 °F 68.0 °F 43% 29.88 in 10.0 mi SE 11.5 mph - N/A   Clear
6:53 PM 93.0 °F 96.4 °F 66.9 °F 42% 29.88 in 10.0 mi SE 11.5 mph - N/A   Clear
7:53 PM 91.0 °F 95.2 °F 68.0 °F 47% 29.89 in 10.0 mi SSE 8.1 mph - N/A   Clear
8:53 PM 86.0 °F 91.5 °F 71.1 °F 61% 29.91 in 10.0 mi SSE 8.1 mph - N/A   Clear
9:53 PM 84.0 °F 88.4 °F 70.0 °F 63% 29.91 in 10.0 mi SSE 6.9 mph - N/A   Clear
10:53 PM 82.0 °F 85.9 °F 70.0 °F 67% 29.92 in 10.0 mi SSE 5.8 mph - N/A   Clear
11:53 PM 79.0 °F - 70.0 °F 74% 29.91 in 10.0 mi South 4.6 mph - N/A   Clear